Federal Corporation

Jurisdiction: Canada
Source: Corporations Canada

This dataset includes 826 thousand corporation entities registered with Corporations Canada, a division of Innovation, Science and Economic Development Canada. Each corporation is registered with corporation number, corporate name, office address, current status, directors, annual filling dates, etc.

Search Result

Corporation Name Office Address Incorporation
Clear Gp Royalty I Inc. 33 Young Street, Suite 1200, Toronto, ON M5E 1G4 2021-02-23
12767031 Canada Inc. 1070 Harcroft Court, Oakville, ON L6H 3K5 2021-02-23
12764831 Canada Inc. 52 Beachham Crescent, Winnipeg, MB R3Y 0A8 2021-02-23
Aban Transport Inc. 56 Renfrew Street, Kitchener, ON N2R 0G5 2021-02-23
12765667 Canada Inc. 1225 Kennedy Road, Unit 2000, Toronto, ON M1P 4Y1 2021-02-23
Faucetexpress Ltd. 11291 Bridgeport Road, Richmond, BC V6X 1T4 2021-02-23
Tadifin Inc. Suite 20012, 118 Tower Hill Road, Richmond Hill, ON L4E 0K6 2021-02-23
12765608 Canada Inc. 45 Boyle Drive, Richmond Hill, ON L4C 6C8 2021-02-23
Thompson Plumbing, Heating & Gas Ltd. 952, St Johns Rd West, Simcoe, ON N3Y 4K1 2021-02-23
12765543 Canada Inc. 1552 Finley Crescent, London, ON N6G 0B4 2021-02-23
12767082 Canada Inc. 232 Burns St, Strathroy, ON N7G 1G1 2021-02-23
12764571 Canada Inc. 110 Fandango Drive, Brampton, ON L6X 0P3 2021-02-23
12766523 Canada Inc. 191 Quae Quae Road, Corbeil, ON P0H 1K0 2021-02-23
12765195 Canada Inc. 4548 Dufferin Street, Unit 105, Toronto, ON M3H 5R9 2021-02-23
12765497 Canada Inc. 46 Barlow Place, Paris, ON N3L 0G8 2021-02-23
12766787 Canada Inc. 30 Imperial Road South, Unit 57, Guelph, ON N1K 1Y2 2021-02-23
12760843 Canada Inc. 116 Dundas St., Thamesford, ON N0M 2M0 2021-02-23
12764423 Canada Inc. 330 Saint Clarens Avenue, Toronto, ON M6H 3W3 2021-02-23
Karonz Transportation Inc. 207 Septonne Avenue, Newmarket, ON L3Y 2W5 2021-02-23
12767058 Canada Inc. 16 Dorward Drive, Toronto, ON M9V 2J5 2021-02-23
12765501 Canada Inc. 3 Rossmore Drive, Markham, ON L6B 0P7 2021-02-23
12765942 Canada Inc. 48 Beaverdams Drive, Whitby, ON L1P 0C7 2021-02-23
12765055 Canada Inc. 7895 119 Street, Delta, BC V4C 6L8 2021-02-23
12766761 Canada Inc. 102 Allegro Drive, Brampton, ON L6Y 5Y3 2021-02-23
Hungry At Home Incorporated 2 County Court Boulevard, 215, Brampton, ON L6W 4V1 2021-02-23
Revival Waves of Christ 222 Advance Blvd. Unit 1, Brampton, ON L6T 4Y7 2021-02-23
12765276 Canada Inc. 801-25 Kensington Rd, Brampton, ON L6T 3W8 2021-02-23
12765314 Canada Limited 215 Main Street, Unit 1 & 2, Schomberg, ON L0G 1T0 2021-02-23
12767601 Canada Inc. 73 Robinglade Dr, Etobicoke, ON M9B 2R2 2021-02-23
12765039 Canada Inc. 40 Westolivia Trail, Thornhill, ON L4J 0C1 2021-02-23
12766582 Canada Inc. 34 Glencairn Ave., Ottawa, ON K1S 1M6 2021-02-23
12767074 Canada Inc. 275 Highbrook Cres., Kitchener, ON N2E 3S6 2021-02-23
12764873 Canada Inc. 166 Dorchester Drive, Grimsby, ON L3M 0A6 2021-02-23
12765217 Canada Inc. 2505 17 Avenue Southwest, Calgary, AB T3C 1J7 2021-02-23
12765811 Canada Inc. 338 South Park Road, Thornhill, ON L3T 7W1 2021-02-23
Harvin Enterprises Ltd. 8 Pink Street, Brampton, ON L6P 3M9 2021-02-23
12766183 Canada Inc. 3815 Regent Avenue, North Vancouver, BC V7N 2C3 2021-02-23
12764938 Canada Inc. 322-3880 Bathurts Street, North York, ON M3H 3N6 2021-02-23
12767317 Canada Inc. 22 Hillbeck Crescent, Toronto, ON M1B 2M9 2021-02-23
12757231 Canada Limited Unit 1410, 18 Erskine Avenue, Toronto, ON M4P 0C9 2021-02-23
Cultural Capital Conglomerate Corporation 673 Jane Street, Toronto, ON M6N 4A6 2021-02-23
12767481 Canada Inc. 39 O'Connor Drive, Toronto, ON M4K 2K3 2021-02-23
12764776 Canada Inc. 5 Juno Way, Debert, NS B0M 1G0 2021-02-23
12765101 Canada Inc. 134 Jones Ave, Toronto, ON M4M 3A1 2021-02-23
Cityshoppa Inc. 146 Carleton Drive, Saskatoon, SK S7H 3N6 2021-02-23
12764865 Canada Inc. 336 Church Street, Oakville, ON L6J 1P1 2021-02-23
12764318 Canada Inc. 60 Bathurst St, 402, Toronto, ON M5V 2P4 2021-02-23
12766230 Canada Inc. 6359 Renaud Road, Orleans, ON K1W 0J4 2021-02-23
12767198 Canada Inc. 308a-339 Essa Road, Barrie, ON L4N 6W1 2021-02-23
12764709 Canada Inc. 2 Alsop Place, Uxbridge, ON L9P 1X1 2021-02-23
12767546 Canada Inc. 19 Glenborough Park Crescent, Toronto, ON M2R 2G4 2021-02-23
12766604 Canada Inc. 1201-5 Kings Cross Rd, Brampton, ON L6T 3X6 2021-02-23
Cloud Real Estate Developing Ltd. 282 Mckee Avenue, Toronto, ON M2N 4E3 2021-02-23
12764229 Canada Inc. 50 Doncaster Avenue, Unit 9, Thornhill, ON L3T 1L4 2021-02-23
Ta’n Etli-Tpi’tmk Association 63 Mini Mall Drive, Eskasoni, NS B1W 1A1 2021-02-23
12767244 Canada Inc. 612-2821 Birchmount Road, Toronto, ON M1W 2C8 2021-02-23
12765152 Canada Inc. 59 Dewey Drive Scarborough, Toronto, ON M1R 3K7 2021-02-23
12767350 Canada Inc. 96 Lockwood Road, Brampton, ON L6Y 5E7 2021-02-23
Wct West Coast Truss Ltd. Suite 1750 - 1055 West Georgia Street, Vancouver, BC V6E 3P3 2021-02-23
12765209 Canada Inc. 155 Pelech Crescent, Hamilton, ON L0R 1P0 2021-02-23
Rooof Corp. 850 Courtney Street, Victoria, BC V8W 1C4 2021-02-22
12761599 Canada Inc. 5 Leblanc Crescent, Brampton, ON L7A 4G7 2021-02-22
12761866 Canada Inc. 315 Elson Street, Markham, ON L3S 4S4 2021-02-22
Allez-Y Passe Universelle 5940 Yonge Street, Suite 301, Toronto, ON M2M 4M6 2021-02-22
12763982 Canada Inc. 20277 53 Avenue, 204, Langley City, BC V3A 3V2 2021-02-22
In2uitive Consulting Inc. 68 Iceland Poppy Trail, Brampton, ON L7A 0N2 2021-02-22
Strategy Insight Services Corp. 2301 Carling Ave, Suite 301, Ottawa, ON K2B 7G3 2021-02-22
12762137 Canada Inc. 96 Mcelroy Road East, Hamilton, ON L9A 1Y8 2021-02-22
12763893 Canada Inc. 6000 Yonge Street, Apt. 1608, Toronto, ON M2M 3W1 2021-02-22
12759942 Canada Ltd. 2100 Bloor Street West #6359, Toronto, ON M6S 5A5 2021-02-22
12760584 Canada Inc. 42 Vivaldi Crescent, Brampton, ON L6Y 2S2 2021-02-22
12761289 Canada Inc. 305-9860 Boulevard Gouin Ouest, Montréal, QC H8Y 3H2 2021-02-22
12762781 Canada Inc. 231 Grace St, Toronto, ON M6G 3A7 2021-02-22
12763541 Canada Inc. 10728 24 Avenue Northwest, Edmonton, AB T6J 5L4 2021-02-22
12761505 Canada Inc. 7357 Woodbine Avenue, Suite 415, Markham, ON L3R 6L3 2021-02-22
12760622 Canada Inc. 12 Rockford Run, Brampton, ON L6Y 5A5 2021-02-22
Hub Edges Corp. 267 Nadia Drive, Dartmouth, NS B3A 0B1 2021-02-22
12760487 Canada Inc. 20 Goreridge Crescent, Brampton, ON L6P 1P2 2021-02-22
12763656 Canada Inc. 885 Springbank Avenue, Woodstock, ON N4T 0A9 2021-02-22
Aaimss Steel Canada Inc. 718 Circle Drive East Bay-C, Saskatoon, SK S7K 3T7 2021-02-22
12759934 Canada Inc. 229 Macalister Blvd, Guelph, ON N1G 0G8 2021-02-22
12760355 Canada Inc. 42 Dewside Drive, Brampton, ON L6R 0X7 2021-02-22
12763681 Canada Inc. 560 Front Street West, 905, Toronto, ON M5V 1C1 2021-02-22
12759900 Canada Inc. 87-5888 144 St, Surrey, BC V3X 0G8 2021-02-22
Kodiak Rail Supply Inc. 2200-201 Portage Avenue, Winnipeg, MB R3B 3L3 2021-02-22
12762366 Canada Inc. 5 Eagle Trace Drive, Brampton, ON L6R 0M1 2021-02-22
12759993 Canada Inc. 1448 Jefferson Crescent, Oakville, ON L6H 3G6 2021-02-22
12763109 Canada Inc. 32 Yardley Crescent, Brampton, ON L6X 5L7 2021-02-22
Global Impact Churches Canada 403-460 Highland Avenue, London, ON N6C 5E2 2021-02-22
12761491 Canada Inc. 6560 Lochdale Street, Burnaby, BC V5B 2M8 2021-02-22
12759926 Canada Inc. 712 Templemead Drive, Hamilton, ON L8W 2V8 2021-02-22
Global Quest Migration Inc. 40 Fountainbridge Drive, Bolton, ON L7E 1N5 2021-02-22
Holiday Pet Store Inc. 1599 West 71st Avenue, Vancouver, BC V6P 3C3 2021-02-22
12753669 Canada Inc. 25 Haverhill Crescent, Whitby, ON L1R 3E7 2021-02-22
12761408 Canada Inc. 10 Place Du Baron, Saint-Sauveur, QC J0R 1R4 2021-02-22
Flareify Inc. 1887a Lawrence Avenue East, Toronto, ON M1R 2Y3 2021-02-22
12762111 Canada Inc. 93 Peelton Heights Road, Brampton, ON L6Y 3A3 2021-02-22
12760827 Canada Inc. 123 Sandyhook Square, Scarborough, ON M1W 3N6 2021-02-22
12761742 Canada Inc. 287 Fleetwood Crescent, Brampton, ON L6T 2E7 2021-02-22
12762374 Canada Inc. 47 Flintridge Rd, Suite 100, Scarborough, ON M1P 1C4 2021-02-22